Location: Azul
(36.7830°S, 59.8500°W)
Time: 20:09:35
(UTC-03:00)

ISS - Pass Details

Date: 17 April 2018
Orbit: 402 x 407 km, 51.6° (Epoch: 27 April)

Event Time Altitude Azimuth Distance (km) Brightness Sun altitude
Exits shadow 05:38:39 33° 156° (SSE) 718 -2.4 -22.3°
Maximum altitude 05:38:54 33° 146° (SE) 710 -2.3 -22.3°
Drops below altitude 10° 05:41:56 10° 79° (E) 1,471 0.1 -21.7°
Sets 05:44:08 0° 69° (ENE) 2,325 1.2 -21.2°
